Theta_e
336 331 333 324 315 315 312 314 320 319 322 328 328 328 328 333 324 312 337 341 342 345 357 361 362 360 365 364 362 360 360 359 357 355 353 355 355 355 356 356 355 354 352 352 351 350 350 350 349
325 323 325 320 313 307 310 316 315 318 325 328 331 329 331 330 342 343 342 341 342 348 353 359 363 360 362 363 361 361 360 359 357 356 354 354 355 355 356 356 356 353 352 352 351 350 350 349 347
328 328 318 315 313 309 310 316 319 322 327 326 324 330 331 335 343 345 341 342 343 343 352 361 363 362 362 361 361 361 360 359 358 356 355 354 355 356 356 356 356 353 352 351 350 348 347 346 345
322 321 319 311 310 314 314 317 322 324 328 326 328 327 339 344 342 346 339 341 340 340 353 362 363 363 362 361 361 361 360 359 358 357 355 354 354 355 356 356 355 352 350 349 348 347 347 347 348
321 317 310 310 311 315 317 319 323 322 324 326 328 327 335 341 345 342 338 340 339 344 352 359 364 364 362 361 360 360 360 360 359 358 356 354 354 355 355 354 353 351 349 348 347 346 346 347 348
313 317 307 307 311 314 318 320 323 322 322 325 326 324 332 341 340 337 338 338 340 350 347 355 362 363 361 361 361 361 361 360 360 359 358 356 356 355 354 354 353 350 349 348 347 347 348 348 349
312 312 308 310 310 312 315 321 319 324 324 322 330 323 328 337 341 338 339 338 345 348 347 352 354 360 362 362 361 361 361 361 360 360 359 358 357 357 356 355 354 353 352 352 351 351 351 351 352
317 314 308 310 310 310 316 319 321 328 323 327 329 323 329 338 343 342 339 338 341 347 345 346 351 352 356 358 361 361 360 360 361 360 359 359 357 357 357 358 357 356 355 355 354 354 355 355 355
321 310 306 310 310 312 317 316 319 326 326 328 327 326 333 342 343 340 338 337 339 345 345 345 345 346 347 349 357 359 358 358 359 358 359 357 353 354 354 355 358 358 357 357 357 358 358 358 357
314 310 311 316 315 314 315 315 317 317 322 326 326 331 342 342 341 338 338 337 337 338 344 345 345 346 345 345 354 353 352 353 353 352 355 353 350 353 351 355 359 359 359 359 359 359 359 359 352
314 310 315 315 315 316 315 315 317 316 314 319 321 328 337 343 340 337 337 339 339 340 343 345 349 350 346 348 349 347 348 348 349 351 354 351 349 353 349 356 353 356 357 351 354 354 354 349 348
309 313 315 315 316 314 314 318 315 315 316 319 320 326 331 338 338 335 337 338 339 342 344 346 350 355 354 354 352 347 347 347 346 347 354 356 351 352 354 348 353 352 348 348 348 349 351 349 351
309 311 313 315 315 315 316 315 315 316 319 320 322 326 326 330 335 337 343 345 346 344 347 347 351 360 366 365 356 353 351 349 348 350 351 350 352 352 354 350 351 350 350 350 349 350 350 350 350
312 311 311 313 313 314 312 314 316 316 320 319 321 322 325 326 333 340 344 348 351 353 351 352 353 361 356 365 369 360 366 362 358 356 352 353 356 355 351 351 350 350 349 348 348 347 348 348 352
312 309 309 311 313 311 314 310 311 318 319 318 319 321 323 328 330 337 347 353 354 355 359 360 358 360 365 365 367 367 361 355 361 356 364 355 356 355 357 351 351 350 350 351 350 351 352 352 350
308 309 304 310 311 312 312 305 312 319 318 317 320 322 321 342 343 347 350 355 358 359 362 366 352 360 363 364 365 362 359 363 359 360 359 357 358 358 359 351 350 350 351 348 347 349 349 350 351
308 301 304 306 312 311 310 307 315 319 318 318 320 324 333 339 344 349 349 352 358 360 361 362 364 360 361 365 365 362 364 362 362 362 359 360 356 356 355 353 353 357 350 348 350 346 348 346 348
302 303 305 306 310 311 308 309 316 318 318 318 320 325 329 334 337 345 350 353 354 355 359 362 363 365 369 362 363 362 359 361 363 362 360 361 356 356 359 353 355 358 352 352 353 349 346 345 337
308 307 306 309 313 310 309 309 314 318 318 318 320 324 331 335 339 340 343 347 350 352 353 353 358 364 365 363 356 354 354 355 353 355 360 354 356 357 357 353 355 356 357 356 342 341 333 334 332
308 305 306 308 311 310 309 308 312 317 317 318 320 325 332 333 335 337 339 341 342 345 347 349 352 357 357 360 359 358 352 355 351 351 344 346 349 350 354 351 349 347 345 343 337 333 331 331 332
307 305 305 305 309 310 308 306 309 314 319 319 323 326 330 331 332 334 336 339 340 342 344 345 347 352 355 354 357 354 359 354 350 344 344 348 346 345 344 343 346 347 345 339 338 336 332 331 333
304 309 307 306 305 300 309 298 309 310 314 317 323 326 328 331 334 334 336 338 338 340 343 344 345 347 347 350 351 350 348 343 340 340 342 342 340 339 339 340 340 343 344 341 340 339 335 333 330
306 310 308 308 305 305 305 301 305 312 311 316 321 323 327 330 331 333 334 334 335 336 337 340 343 344 345 346 346 344 341 340 340 341 343 343 340 337 335 339 337 335 337 338 340 340 340 338 334
312 309 308 307 305 299 303 302 303 306 312 317 321 323 326 328 330 332 333 332 332 329 330 334 335 336 337 338 341 339 338 336 335 337 336 335 336 332 331 332 335 336 334 333 333 335 336 337 338
310 305 297 296 296 296 305 302 305 311 313 318 321 323 325 328 328 329 328 326 328 328 328 329 333 332 334 333 333 333 334 336 329 331 329 329 325 325 329 331 330 328 330 331 332 331 332 333 334
306 306 298 292 294 297 306 300 305 314 318 321 325 325 326 326 328 327 326 326 326 327 329 328 330 330 331 331 332 334 338 327 326 330 330 325 326 326 332 331 330 328 328 327 329 329 329 331 330
305 303 307 302 303 298 301 306 312 315 318 322 322 324 324 326 327 327 326 327 327 327 330 329 329 329 329 330 330 331 331 330 331 333 332 328 330 325 329 329 328 327 327 327 327 325 328 327 324
308 309 301 303 295 294 298 301 303 309 313 318 320 322 325 327 327 326 326 327 327 328 330 330 329 327 328 328 327 327 330 330 331 331 329 329 330 328 327 325 325 324 324 325 325 322 323 323 325
306 305 306 306 303 296 296 299 310 314 317 317 319 322 323 325 325 326 326 328 327 327 325 327 327 326 326 327 328 329 328 329 330 329 327 327 328 325 323 321 320 319 320 322 322 322 320 319 323
310 307 307 301 299 303 302 301 313 315 316 318 318 322 324 325 325 325 326 326 326 325 325 325 327 325 325 326 327 328 329 329 329 327 326 326 323 323 319 317 316 315 315 317 315 315 318 318 318
Wind_Speed
13 15 11 8 5 8 10 14 12 17 12 11 9 12 21 18 11 7 11 16 25 21 17 18 19 19 16 17 16 15 13 12 12 11 12 12 12 12 12 12 12 13 13 13 13 12 12 12 11
11 16 9 6 5 6 11 7 13 13 9 11 1 19 21 17 17 14 12 24 23 19 15 17 18 19 18 17 16 15 13 12 11 11 12 11 10 10 10 10 10 11 11 11 10 9 8 8 7
15 16 8 6 11 11 2 10 11 10 7 14 15 17 11 15 15 13 17 24 22 18 17 16 18 19 17 16 16 15 13 12 12 11 11 11 10 9 8 8 9 9 9 9 8 7 6 6 5
8 7 7 11 11 7 8 5 1 10 7 14 14 15 11 10 9 17 21 24 20 19 19 18 18 18 18 17 16 15 14 12 11 11 10 10 9 8 8 7 7 8 7 7 6 4 4 4 4
10 9 11 17 6 7 8 3 10 17 13 26 23 16 11 12 17 20 19 19 20 21 18 17 18 17 17 15 15 14 13 12 11 11 10 10 9 7 7 6 6 6 6 5 3 2 2 3 3
8 10 15 14 5 5 5 5 12 10 26 17 21 14 7 14 17 19 18 17 20 21 18 15 16 16 16 15 14 13 13 11 10 10 9 9 8 7 6 5 5 5 4 3 2 0 1 3 4
13 13 19 20 2 3 7 4 6 24 21 7 16 9 13 10 15 16 16 16 21 21 18 14 15 14 15 14 14 13 11 11 10 9 8 8 8 7 7 6 5 5 4 3 3 3 4 5 7
11 13 21 19 7 8 9 5 5 23 7 6 11 4 12 7 13 15 16 16 19 21 18 15 13 13 12 12 13 12 11 10 9 9 9 8 8 8 8 7 8 8 7 6 6 7 8 9 10
14 12 16 14 7 7 8 6 3 6 15 24 16 21 25 13 15 15 14 15 15 18 18 16 15 14 13 13 11 11 11 11 10 9 9 7 7 9 11 12 11 12 10 9 9 11 12 12 12
13 13 23 8 17 8 10 8 8 6 13 28 37 28 22 17 16 14 14 13 16 15 19 17 17 15 14 13 13 10 9 8 7 9 10 8 10 9 12 12 16 14 13 11 12 14 15 12 8
17 17 22 11 9 11 11 3 2 9 8 17 14 17 16 15 10 14 15 16 17 17 11 18 14 14 14 13 10 7 7 7 7 10 9 9 8 6 6 6 7 7 11 7 10 10 8 10 9
18 19 21 6 4 5 12 9 5 9 11 10 7 10 9 8 12 10 13 15 15 16 13 15 15 10 8 12 10 10 8 9 8 9 8 5 5 6 3 5 9 8 7 9 9 7 9 12 12
16 17 18 6 10 8 13 10 11 14 10 2 4 10 4 5 6 7 4 9 11 13 11 11 13 7 2 2 5 8 7 9 9 9 10 6 5 4 3 4 4 5 5 9 8 6 6 11 6
12 14 20 10 15 15 10 12 19 9 6 3 2 6 13 5 8 4 8 13 7 7 11 9 14 9 7 3 3 3 1 2 4 5 9 10 4 3 4 3 4 5 4 5 4 4 2 2 3
12 12 17 11 15 13 11 13 17 8 3 1 1 0 6 5 4 4 12 11 8 3 4 6 10 12 7 5 3 2 4 4 2 4 4 9 7 5 4 3 4 4 4 6 5 6 5 3 5
16 13 15 18 18 14 15 14 20 14 8 8 4 5 3 18 15 14 13 9 9 7 3 2 7 15 9 7 5 4 5 3 5 4 4 7 6 5 3 3 4 5 4 3 3 4 5 5 4
14 15 20 21 21 13 13 16 8 11 9 7 5 7 11 13 15 12 11 10 8 6 6 2 3 5 13 6 4 6 6 5 4 4 4 8 8 7 6 4 4 5 3 3 3 3 4 5 5
14 18 16 16 15 13 16 15 14 10 12 7 8 8 10 10 11 8 13 11 7 5 5 1 3 4 4 8 5 4 5 4 4 4 4 6 6 6 5 5 5 3 4 4 2 4 6 6 9
21 15 16 12 11 15 13 15 18 17 12 13 9 7 12 11 8 7 5 7 6 9 9 9 7 3 3 2 4 3 4 4 3 4 5 4 4 3 6 3 3 4 3 3 5 3 2 2 3
20 11 17 11 7 11 13 17 16 17 15 12 13 10 13 8 7 7 7 7 8 7 7 8 8 8 4 4 5 0 2 4 6 9 12 14 14 14 8 8 8 8 7 6 4 4 1 2 3
12 14 16 16 15 15 9 13 19 18 18 13 8 12 12 12 10 8 8 10 8 5 6 7 6 6 7 9 5 4 3 3 7 8 6 6 7 11 12 10 7 4 2 3 3 3 0 3 2
16 17 18 18 18 14 17 14 19 20 19 18 13 11 11 10 12 11 11 12 10 9 9 8 8 8 8 11 7 10 7 7 7 6 4 7 7 10 10 9 8 9 5 3 3 2 1 3 3
18 19 20 17 16 18 20 14 16 17 21 20 19 17 16 14 12 12 12 12 13 11 9 8 9 9 9 9 11 8 7 6 5 3 3 5 5 6 6 7 7 6 5 6 8 7 4 4 4
20 19 17 19 10 16 20 19 17 16 18 22 23 20 18 17 15 13 13 13 12 13 11 9 9 9 9 10 10 9 8 7 6 4 3 4 3 6 7 7 5 4 5 5 6 7 7 6 7
18 16 12 15 14 16 18 20 16 16 18 26 27 23 20 19 16 15 15 13 12 13 12 10 8 8 7 8 8 8 7 6 8 6 5 6 6 7 6 6 7 6 7 7 4 5 5 5 6
19 17 14 18 16 18 23 21 16 16 6 12 24 23 21 20 18 17 16 14 13 12 11 11 9 8 8 6 6 7 2 6 6 8 5 6 5 4 4 4 4 5 4 5 5 4 5 6 5
23 19 19 20 20 17 18 21 11 14 18 21 21 21 20 18 18 17 17 13 12 10 9 10 9 8 8 7 6 5 7 8 6 6 5 5 5 5 4 4 4 3 5 5 7 5 4 4 5
24 17 16 13 19 19 18 18 16 14 14 16 19 17 15 15 17 16 16 13 12 11 9 9 9 8 8 9 7 6 5 6 5 5 6 5 4 5 5 5 5 6 6 5 4 6 8 8 2
15 19 19 16 15 12 14 13 3 5 11 9 13 16 15 15 17 17 16 14 13 13 12 10 9 9 8 7 7 5 5 6 5 4 5 4 5 5 6 7 7 7 7 6 6 5 7 9 7
20 18 20 15 21 15 16 12 7 9 14 18 20 17 18 18 16 17 18 15 12 11 13 12 8 11 10 9 7 6 4 5 5 4 5 5 5 6 7 8 8 8 7 6 7 9 8 7 8
Wind_Direction
285 266 226 278 247 6 247 248 84 97 78 88 57 81 69 42 109 184 233 120 116 123 129 127 129 131 124 122 121 121 120 117 113 109 108 106 107 109 109 110 110 110 109 103 98 96 94 90 77
297 302 267 260 252 112 274 93 93 83 96 106 34 96 75 63 90 132 131 116 117 126 137 133 133 134 131 126 126 125 124 121 118 115 114 116 115 113 109 110 109 107 104 101 98 96 94 90 72
263 254 281 223 237 186 312 64 110 120 168 103 80 55 52 96 99 127 126 115 122 137 131 130 129 132 130 128 127 127 130 132 129 125 123 124 123 116 109 107 107 106 104 101 95 88 77 71 66
287 283 229 243 167 242 49 71 207 138 118 91 73 91 91 14 105 122 130 122 138 140 126 135 131 131 134 135 136 137 139 139 135 130 130 131 132 128 123 121 116 114 108 102 97 88 76 65 41
277 265 268 263 216 95 85 50 74 45 8 10 56 52 79 81 107 131 132 137 137 124 128 135 132 133 134 138 140 142 145 146 146 144 145 143 143 141 138 139 135 128 120 111 97 79 56 31 14
287 263 272 268 166 97 91 318 109 111 80 340 55 46 46 113 128 134 140 148 132 120 135 140 135 137 140 144 147 148 151 152 153 153 154 152 149 148 150 152 147 139 136 136 138 291 332 319 317
267 287 287 289 193 174 60 321 10 92 93 203 51 52 312 134 141 140 146 148 123 130 129 142 146 143 146 148 149 150 152 154 158 161 162 162 164 162 166 171 172 175 182 193 213 233 264 266 261
264 290 287 273 140 104 95 285 302 115 149 132 116 202 264 174 148 149 148 148 139 131 140 148 148 155 155 156 153 154 157 159 161 166 172 176 180 185 188 192 202 198 204 217 230 239 239 247 257
268 272 272 286 273 95 109 277 57 129 159 121 196 177 220 178 158 161 153 151 144 139 144 153 159 161 169 158 159 159 166 169 171 179 187 183 208 189 197 207 199 197 206 216 229 242 248 247 255
237 251 257 334 340 47 82 322 21 297 142 158 171 192 180 161 169 158 156 162 152 161 154 156 163 161 177 159 149 174 176 185 191 192 182 215 221 194 205 193 178 193 205 217 225 237 241 246 248
237 244 262 343 10 1 347 347 200 295 16 80 95 125 141 152 167 174 176 169 170 160 163 155 161 162 182 139 158 173 172 189 193 204 184 205 238 214 197 151 184 196 209 219 217 230 235 242 235
239 249 257 291 97 287 279 286 333 269 60 37 51 70 121 164 168 225 184 165 160 150 159 148 144 167 203 136 167 173 183 185 185 196 193 211 221 259 218 191 203 196 196 205 231 215 222 223 242
238 250 257 231 276 257 268 271 269 274 87 26 297 123 151 185 227 206 115 71 110 134 140 152 143 137 166 139 175 172 195 179 189 175 178 192 236 252 252 262 285 187 219 197 226 209 204 219 225
236 240 254 233 247 238 240 260 251 260 74 265 288 279 176 191 182 205 98 89 73 66 127 146 142 137 168 221 289 160 261 187 170 170 173 184 206 232 246 244 281 297 304 295 273 243 289 193 232
247 272 244 246 239 240 225 256 252 175 131 259 90 340 342 152 194 154 119 105 103 83 62 121 139 147 169 190 231 265 183 228 247 195 168 172 187 237 267 243 257 240 252 279 300 312 312 292 264
241 249 248 234 221 230 243 248 232 142 162 209 133 82 225 53 41 40 86 82 112 144 166 199 195 150 163 176 197 220 237 259 199 226 181 168 169 209 246 255 283 281 266 290 299 305 300 282 265
227 240 230 252 192 210 195 247 134 148 169 187 167 121 67 84 62 39 30 88 71 49 131 250 311 179 158 195 215 197 247 200 235 220 200 169 184 206 201 259 261 253 270 279 310 306 290 295 307
223 211 247 236 174 199 216 233 151 176 172 191 199 138 105 77 65 61 32 49 71 50 28 209 222 284 157 168 192 248 213 224 230 239 223 175 177 194 201 215 248 299 291 263 314 15 8 33 1
265 296 237 205 184 188 230 250 180 180 195 185 166 158 118 104 74 61 53 38 55 50 29 22 358 9 349 319 186 219 234 199 219 220 217 166 178 218 191 202 300 6 31 40 37 42 40 27 78
258 278 283 296 255 191 216 233 261 182 186 197 175 150 129 133 125 106 93 74 50 46 45 33 19 11 355 298 313 151 358 44 80 58 49 29 33 23 6 1 15 4 348 3 6 348 307 0 78
261 260 266 265 263 232 235 258 266 216 177 194 141 150 150 157 143 131 118 108 111 102 77 49 33 25 32 358 346 355 51 41 40 45 49 27 50 35 28 20 4 350 5 358 323 267 324 292 152
244 248 255 265 271 256 198 242 238 242 178 177 157 149 162 157 143 143 135 127 129 120 103 84 63 36 33 17 30 44 57 78 74 72 44 62 35 25 16 7 350 356 358 292 276 226 314 281 289
252 263 264 257 246 273 256 254 267 232 196 173 175 179 165 167 155 146 131 120 106 102 92 70 66 61 57 50 37 69 75 73 75 77 71 58 64 51 30 38 32 5 3 5 351 334 277 234 264
263 254 250 269 252 245 244 254 258 242 180 182 175 173 163 161 166 147 131 135 130 109 99 87 77 69 58 52 61 71 69 55 65 66 67 88 93 87 46 22 22 30 2 357 350 349 338 323 296
241 247 247 238 233 247 243 242 243 251 265 182 167 160 166 163 158 148 151 147 136 129 127 117 105 97 86 80 77 80 92 86 45 43 35 36 62 56 28 29 15 15 358 346 349 322 314 309 309
233 230 238 239 233 242 231 237 244 240 104 142 138 153 165 169 157 159 162 146 151 143 122 121 127 121 110 99 90 63 45 94 78 38 43 49 39 80 30 58 29 348 358 340 348 310 329 332 325
247 227 240 259 276 286 283 281 143 132 136 139 151 155 165 175 158 161 150 159 142 147 141 131 124 125 117 109 95 85 74 67 69 53 37 52 36 23 34 18 2 353 336 3 355 324 306 312 330
217 248 242 223 243 251 261 277 288 185 156 150 157 160 167 172 159 159 152 156 149 147 145 130 146 142 142 136 149 124 103 84 80 81 75 51 36 21 350 358 346 336 335 343 5 334 328 315 301
208 221 232 264 263 262 258 270 48 80 144 139 151 163 175 193 169 160 154 151 162 153 160 157 154 142 151 139 108 124 109 99 85 80 60 40 20 7 352 345 339 335 330 342 336 318 301 339 335
260 243 251 230 241 253 270 234 169 180 162 167 193 182 190 186 187 171 157 157 170 172 167 154 181 155 163 134 165 129 121 113 81 56 45 12 6 360 352 344 336 331 332 345 329 323 330 329 347